Other Public Products
Issued by NWS Charleston, SC

Current Version | Previous Version | Graphics & Text | Print | Product List | Glossary On
Versions: 1 2 3 4 5 6 7 8 9 10 11 12 13 14 15 16 17 18 19 20 21 22 23 24 25 26 27 28 29 30 31 32 33 34 35 36 37 38 39 40 41 42 43 44 45 46 47 48 49 50
000 FPUS82 KCHS 190327 OPUCHS TEST...KCHS/KSAV Gateway Observations...TEST National Weather Service Charleston SC 1100 PM EDT WED OCT 18 2017 NOTE: "fair" indicates few or no clouds below 12,000 feet with no significant weather and/or obstructions to visibility. SCZ050-WAZ558-NCZ071-TXZ119-213-PAZ071-DCZ001-FLZ074-172-MI076- NYZ176-178-MAZ016-IL014-TNZ027-NJZ106-GAZ044-MD014-190400- ...Gateway Observations for Charleston International... CITY SKY/WX TMP DP RH WIND PRES REMARKS Chas Airport CLEAR 60 56 86 NE6 30.27S Seattle RAIN 58 54 86 SW20G29 29.60S FOG Charlotte PTCLDY 60 40 47 CALM 30.33S Dallas DFW MOCLDY 66 46 48 SE8 30.09R Dallas Love MOCLDY 69 45 41 SE9 30.10R Philladelphia CLEAR 58 50 75 S5 30.31F Wash National PTCLDY 57 49 74 SW5 30.32S Baltimore PTCLDY 48 47 96 W3 30.31S Miami CLOUDY 80 73 79 CALM 30.04R Detroit CLEAR 56 42 59 S9 30.12R Newark CLEAR 59 47 64 SW8 30.29S Laguardia CLEAR 65 48 54 SW7 30.28S J F K CLEAR 60 52 74 SW8 30.30S Boston Logan CLEAR 57 46 66 S5 30.27S Ft. Lauderdale LGT RAIN 76 76 100 N7 30.04R Chicago O`Hare PTCLDY 64 42 44 SW13 30.04R Chicago Midway PTCLDY 62 44 51 SW14 30.05R Houston Bush PTCLDY 68 64 87 SE8 30.13S Houston Hobby MOCLDY 72 65 78 SE3 30.13R Nashville CLEAR 54 46 74 S5 30.24S Atlanta CLEAR 56 43 61 E8 30.30R $$ GAZ044-118-TXZ119-213-NCZ071-DCZ001-MDZ014-506-PAZ021-071-NJZ106- NYZ176-178-MAZ106-OHZ011-021-055-MIZ076-KYZ091-ILZ014-INZ047- MNZ060-ONZ431-190400- ...Gateway Observations for Savannah International... CITY SKY/WX TMP DP RH WIND PRES REMARKS Savannah Arpt CLEAR 62 57 83 N7 30.27S Atlanta CLEAR 56 43 61 E8 30.30R Charlotte PTCLDY 60 40 47 CALM 30.33S Dallas DFW MOCLDY 66 46 48 SE8 30.09R Houston Bush PTCLDY 68 64 87 SE8 30.13S Wash National PTCLDY 57 49 74 SW5 30.32S Wash Dulles PTCLDY 49 45 86 S3 30.31R Baltimore PTCLDY 48 47 96 W3 30.31S Philadelphia CLEAR 58 50 75 S5 30.31F Newark CLEAR 59 47 64 SW8 30.29S Laguardia CLEAR 65 48 54 SW7 30.28S J F K CLEAR 60 52 74 SW8 30.30S Boston CLEAR 57 46 66 S5 30.27S Pittsburg CLEAR 51 44 77 SE3 30.21F Akron CLEAR 53 38 56 S8 30.19S Cleveland CLEAR 59 40 49 S9 30.18S Cincinnati CLEAR 53 46 77 S7 30.20S Columbus CLEAR 51 42 71 S3 30.20F Detroit CLEAR 56 42 59 S9 30.12R Chicago O`Hare PTCLDY 64 42 44 SW13 30.04R Minneapolis PTCLDY 55 27 34 W10 30.00R Indianapolis CLEAR 55 45 68 S10 30.16F Toronto Canada CLEAR 55 43 62 S3 30.08F $$

USA.gov is the U.S. government's official web portal to all federal, state and local government web resources and services.